SCP
0 0 0 0 0 0 0 0 0 0 0 0 0 0 0 0 0 0 0 0 0 0 0 0 0 0 0 0 0 0 0 0 0 0 0 0 0 0 0 0 0 0 0
0 0 0 0 0 0 0 0 0 0 0 0 0 0 0 0 0 0 0 0 0 0 0 0 0 0 0 0 0 0 0 0 0 0 0 0 0 0 0 0 0 0 0
0 0 0 0 0 0 0 0 0 0 0 0 0 0 0 0 0 0 0 0 0 0 0 0 0 0 0 0 0 0 0 0 0 0 0 0 0 0 0 0 0 0 0
0 0 0 0 0 0 0 0 0 0 0 0 0 0 0 0 0 0 0 0 0 0 0 0 0 0 0 0 0 0 0 0 0 0 0 0 0 0 0 0 0 0 0
0 0 0 0 0 0 0 0 0 0 0 0 0 0 0 0 0 0 0 0 0 0 0 0 0 0 0 0 0 0 0 0 0 0 0 0 0 0 0 0 0 0 0
0 0 0 0 0 0 0 0 0 0 0 0 0 0 0 0 0 0 0 0 0 0 0 0 0 0 0 0 0 0 0 0 0 0 0 0 0 0 0 0 0 0 0
0 0 0 0 0 0 0 0 0 0 0 0 0 0 0 0 0 0 0 0 0 0 0 0 0 0 0 0 0 0 0 0 0 0 0 0 0 0 0 0 0 0 0
0 0 0 0 0 0 0 0 0 0 0 0 0 0 0 0 0 0 0 0 0 0 0 0 0 0 0 0 0 0 0 0 0 0 0 0 0 0 0 0 0 0 0
0 0 0 0 0 0 0 0 0 0 0 0 0 0 0 0 0 0 0 0 0 0 0 0 0 0 0 0 0 0 0 0 0 0 0 0 0 0 0 0 0 0 0
0 0 0 0 0 0 0 0 0 0 0 0 0 0 0 0 0 0 0 0 0 0 0 0 0 0 0 0 0 0 0 0 0 0 0 0 0 0 0 0 0 0 0
0 0 0 0 0 0 0 0 0 0 0 0 0 0 0 0 0 0 0 0 0 0 0 0 0 0 0 0 0 0 0 0 0 0 0 0 0 0 0 0 0 0 0
0 0 0 0 0 0 0 0 0 0 0 0 0 0 0 0 0 0 0 0 0 0 0 0 0 0 0 0 0 0 0 0 0 0 0 0 0 0 0 0 0 0 0
0 0 0 0 0 0 0 0 0 0 0 0 0 0 0 0 0 0 0 0 0 0 0 0 0 0 0 0 0 0 0 0 0 0 0 0 0 0 0 0 0 0 0
0 0 0 0 0 0 0 0 0 0 0 0 0 0 0 0 0 0 0 0 0 0 0 0 0 0 0 0 0 0 0 0 0 0 0 0 0 0 0 0 0 0 0
0 0 0 0 0 0 0 0 0 0 0 0 0 0 0 0 0 0 0 0 0 0 0 0 0 0 0 0 0 0 0 0 0 0 0 0 0 0 0 0 0 0 0
0 0 0 0 0 0 0 0 0 0 0 0 0 0 0 0 0 0 0 0 0 0 0 0 0 0 0 0 0 0 0 0 0 0 0 0 0 0 0 0 0 0 0
0 0 0 0 0 0 0 0 0 0 0 0 0 0 0 0 0 0 0 0 0 0 0 0 0 0 0 0 0 0 0 0 0 0 0 0 0 0 0 0 0 0 0
0 0 0 0 0 0 0 0 0 0 0 0 0 0 0 0 0 0 0 0 0 0 0 0 0 0 0 0 0 0 0 0 0 0 0 0 0 0 0 0 0 0 0
0 0 0 0 0 0 0 0 0 0 0 0 0 0 0 0 0 0 0 0 0 0 0 0 0 0 0 0 0 0 0 0 0 0 0 0 0 0 0 0 0 0 0
0 0 0 0 0 0 0 0 0 0 0 0 0 0 0 0 0 0 0 0 0 0 0 0 0 0 0 0 0 0 0 0 0 0 0 0 0 0 0 0 0 0 0
0 0 0 0 0 0 0 0 0 0 0 0 0 0 0 0 0 0 0 0 0 0 0 0 0 0 0 0 0 0 0 0 0 0 0 0 0 0 0 0 0 0 0
0 0 0 0 0 0 0 0 0 0 0 0 0 0 0 0 0 0 0 0 0 0 0 0 0 0 0 0 0 0 0 0 0 0 0 0 0 0 0 0 0 0 0
0 0 0 0 0 0 0 0 0 0 0 0 0 0 0 0 0 0 0 0 0 0 0 0 0 0 0 0 0 0 0 0 0 0 0 0 0 0 0 0 0 0 0
0 0 0 0 0 0 0 0 0 0 0 0 0 0 0 0 0 0 0 0 0 0 0 0 0 0 0 0 0 0 0 0 0 0 0 0 0 0 0 0 0 0 0
0 0 0 0 0 0 0 0 0 0 0 0 0 0 0 0 0 0 0 0 0 0 0 0 0 0 0 0 0 0 0 0 0 0 0 0 0 0 0 0 0 0 0
0 0 0 0 0 0 0 0 0 0 0 0 0 0 0 0 0 0 0 0 0 0 0 0 0 0 0 0 0 0 0 0 0 0 0 0 0 0 0 0 0 0 0
Wind_Speed
3 3 3 3 3 3 3 4 4 3 3 3 3 3 3 3 4 4 4 4 4 4 3 3 4 3 2 2 2 2 2 2 4 3 2 2 3 3 4 3 3 3 4
3 3 3 3 3 3 3 3 3 4 3 4 3 3 3 3 4 5 5 5 5 5 4 4 4 3 3 3 3 3 3 3 3 4 3 3 3 3 3 4 3 3 3
2 3 3 3 3 3 3 3 3 3 3 3 3 4 4 4 4 5 5 5 5 5 5 5 5 4 4 3 3 4 3 3 3 3 4 3 3 2 3 4 4 3 4
2 3 3 3 3 3 3 3 3 3 3 4 4 4 4 4 4 5 5 5 5 5 5 5 5 6 6 5 4 4 3 3 3 3 4 3 3 2 2 3 4 3 4
2 3 3 3 2 2 2 2 2 3 3 3 4 4 4 4 4 5 5 5 5 4 4 5 5 6 7 6 4 4 4 3 3 3 3 3 3 3 3 2 4 4 4
3 3 2 2 2 2 2 2 2 3 3 3 4 4 4 4 6 8 5 5 5 5 5 5 5 6 6 8 8 7 7 5 5 4 4 5 5 4 3 3 3 4 5
2 2 2 2 2 3 3 3 3 3 3 3 4 4 5 6 8 8 8 5 5 5 5 5 4 4 6 6 7 9 9 10 9 6 6 7 6 5 4 4 4 5 6
2 2 2 2 3 2 2 3 3 3 3 4 4 4 4 6 8 8 8 6 5 5 6 6 6 5 6 6 5 5 6 7 8 6 6 7 6 5 5 4 5 5 5
2 3 3 3 3 3 3 3 3 3 3 4 3 4 5 5 7 8 6 4 4 5 5 5 6 6 8 8 5 6 6 6 7 8 8 8 8 7 5 2 2 3 5
3 3 3 3 3 4 4 3 3 3 3 3 3 4 5 5 7 7 7 3 4 4 4 5 6 7 8 8 6 6 7 6 3 4 5 6 5 6 7 5 4 4 4
3 2 2 2 3 3 3 2 2 2 2 2 3 3 4 5 6 7 7 4 4 4 4 4 4 8 9 9 8 6 8 5 3 4 4 3 3 3 4 4 4 5 5
2 2 2 2 2 2 2 2 2 2 2 3 3 3 3 3 4 6 7 7 5 4 4 4 4 8 8 9 7 7 8 4 2 3 4 4 4 4 3 3 4 4 5
1 2 2 2 1 1 2 2 1 2 2 2 2 3 3 2 3 6 6 7 7 5 4 6 6 7 7 6 7 7 4 3 3 4 5 5 4 4 3 2 2 3 3
1 2 1 1 1 1 1 1 2 2 3 3 3 3 3 3 2 2 3 3 4 4 3 4 5 5 4 3 3 3 3 3 4 5 4 3 2 3 3 3 3 2 3
1 1 1 1 1 1 1 2 3 3 3 4 4 3 3 4 5 5 3 3 3 3 1 1 1 1 2 2 2 2 2 2 3 3 3 3 3 3 3 3 2 2 3
1 1 1 1 1 1 1 2 4 4 5 6 6 4 4 5 6 6 6 5 5 4 2 2 3 3 3 3 3 3 3 3 3 3 3 3 4 4 4 3 3 3 4
2 2 1 1 1 1 1 1 2 3 4 5 6 6 6 6 6 6 5 5 4 4 3 3 3 4 4 4 4 4 4 3 3 3 4 4 4 4 3 3 3 3 3
2 2 1 1 2 2 2 2 2 2 3 3 4 5 6 6 6 5 4 2 2 2 3 3 4 4 4 4 4 4 3 3 3 3 4 4 4 3 3 4 4 4 3
1 1 1 1 1 1 1 1 1 2 2 3 3 3 4 5 5 4 2 2 2 3 3 3 3 3 4 4 4 3 3 3 4 3 3 4 3 3 3 3 3 4 3
1 2 1 1 1 1 1 1 1 1 2 2 3 3 2 1 1 2 1 2 2 3 3 3 3 3 3 3 3 3 3 3 4 3 3 3 3 3 4 4 4 3 3
1 1 1 0 1 1 1 2 2 2 2 2 3 3 3 2 2 2 2 2 3 3 3 3 3 3 3 3 3 3 4 4 3 3 3 3 3 3 3 3 4 3 3
1 1 1 1 1 1 2 2 2 2 2 3 3 3 4 2 2 2 3 3 3 3 3 3 3 3 3 3 3 3 4 4 4 3 3 3 3 3 3 3 3 3 3
1 1 1 1 1 2 2 2 2 2 3 3 3 3 2 2 3 3 3 3 3 3 2 2 3 3 2 3 3 3 4 4 4 4 4 4 3 3 3 4 4 4 4
2 2 2 2 2 2 2 2 2 3 3 3 3 3 3 3 3 3 3 3 2 2 2 2 3 4 4 3 3 3 3 4 3 4 5 5 4 4 3 4 4 5 4
2 2 3 2 2 3 3 3 3 3 3 3 3 3 3 3 3 3 3 3 3 3 4 3 3 3 5 5 5 4 5 6 5 3 3 4 4 5 4 5 4 4 4
2 3 3 2 3 3 3 3 3 3 4 4 4 4 4 4 4 4 3 3 3 3 3 3 4 5 5 5 6 6 6 6 5 5 4 4 4 4 4 4 5 4 4
Wind_Direction
194 198 197 201 201 195 195 197 193 186 179 178 182 190 196 198 197 198 207 196 196 201 199 203 217 206 206 213 209 207 212 211 242 273 275 291 291 292 305 300 289 290 294
199 192 199 198 189 195 202 200 188 185 186 185 180 187 199 204 204 203 210 204 202 205 206 205 217 208 213 214 212 217 221 221 228 263 282 285 284 283 294 295 296 292 286
197 192 198 198 194 202 205 196 188 186 186 185 183 194 202 206 206 208 206 205 208 210 206 207 213 205 217 220 218 220 224 229 231 250 276 283 286 288 305 306 301 295 293
200 199 207 210 208 207 202 193 191 187 188 192 196 203 205 206 207 209 206 204 211 215 211 211 211 210 218 219 220 222 219 220 228 248 268 281 283 281 280 298 307 307 303
202 210 220 218 209 197 193 193 187 189 196 197 198 207 210 209 208 208 206 204 209 216 221 219 218 218 226 222 222 221 212 217 226 243 259 276 279 281 276 285 294 309 300
211 223 224 209 206 204 204 197 191 198 201 198 205 210 215 220 218 213 208 205 210 216 226 229 226 219 228 231 234 227 216 215 221 230 246 251 259 265 270 273 289 306 298
230 234 224 208 213 216 207 199 202 206 205 211 217 219 225 230 226 221 216 211 212 217 222 228 235 232 225 231 236 237 235 237 231 226 237 245 251 248 250 265 271 275 276
239 246 239 215 221 221 210 213 217 210 208 217 222 227 234 238 233 229 223 219 222 223 224 223 231 235 228 226 226 233 237 237 239 236 235 242 243 237 230 243 257 278 285
250 257 252 229 222 215 220 228 227 218 219 222 224 223 234 246 238 232 222 222 227 230 230 226 228 236 239 231 225 234 247 253 252 249 251 255 256 255 250 244 254 267 285
257 259 254 238 226 221 226 232 232 225 226 228 237 232 233 243 243 235 221 218 230 237 234 230 228 237 245 234 225 224 241 250 244 257 260 262 255 242 239 225 221 239 271
280 275 260 241 235 230 227 228 225 222 223 230 241 247 244 248 252 241 225 218 223 235 241 241 241 244 249 245 238 231 241 251 235 237 251 257 255 245 239 235 227 228 246
284 264 255 248 237 224 213 222 217 208 216 231 245 260 253 250 250 250 240 233 228 228 239 243 246 247 249 250 246 242 248 248 232 238 245 249 249 251 248 247 250 255 253
286 269 265 256 244 224 206 207 210 212 220 232 236 254 268 261 255 254 250 244 239 234 238 245 248 246 247 247 245 246 239 220 225 238 243 249 249 245 245 256 265 264 273
259 271 262 245 265 275 247 213 207 212 222 228 235 248 262 267 255 246 246 248 246 244 244 245 246 247 246 249 243 242 231 226 229 242 248 253 249 244 248 249 262 270 285
259 257 263 256 245 246 250 238 227 230 223 229 234 232 237 256 257 249 235 234 230 231 222 217 232 231 238 249 253 241 228 224 233 242 246 259 256 249 249 243 248 254 263
257 258 248 249 250 239 250 298 274 255 257 255 250 241 249 256 267 257 251 250 244 226 196 211 228 225 229 236 241 246 235 230 234 236 235 239 248 251 255 251 245 239 252
247 254 250 240 234 230 227 238 292 308 281 267 263 261 260 269 272 264 258 258 246 220 210 222 230 232 233 232 234 239 245 240 232 229 232 236 240 244 244 246 245 245 251
263 257 243 241 239 235 229 231 238 260 293 297 290 280 279 280 279 271 263 258 253 228 221 227 232 233 234 236 235 236 240 238 230 231 233 232 233 237 240 241 237 236 244
268 263 254 254 248 246 245 235 234 245 260 279 298 304 299 290 285 276 262 224 230 238 235 239 240 239 239 236 236 234 231 235 236 234 234 233 230 231 238 239 238 235 237
263 266 267 254 254 248 245 238 242 244 256 269 275 285 308 303 279 282 254 232 234 243 242 242 241 237 238 238 235 232 234 236 235 235 236 233 230 228 231 232 230 229 231
250 253 251 266 260 250 242 241 241 238 247 260 269 274 276 256 254 258 255 241 235 239 242 243 243 240 236 233 236 234 233 239 236 235 233 231 226 232 234 230 231 228 230
230 237 236 237 257 263 260 254 250 247 249 259 277 285 281 263 248 251 254 253 247 244 240 235 242 242 236 233 233 237 239 240 237 234 234 232 230 231 231 230 230 224 220
224 228 237 246 250 260 264 256 250 253 257 260 265 271 269 256 253 252 256 259 256 253 248 237 243 254 250 244 237 233 239 244 238 227 227 231 232 228 223 226 223 218 224
229 227 228 234 238 243 248 255 255 257 261 264 266 268 268 266 263 263 264 266 264 263 257 247 244 249 251 254 254 249 249 252 247 230 219 222 227 227 222 224 223 218 224
229 234 234 235 237 242 247 252 256 259 261 262 263 266 268 268 266 265 265 264 263 263 263 258 255 253 252 253 257 258 259 258 251 237 223 220 222 222 221 222 221 219 224
233 238 242 242 242 242 242 246 252 255 258 262 263 262 261 262 263 263 263 261 263 265 266 264 261 258 259 259 259 262 261 257 251 235 220 216 218 225 224 227 219 215 218